Wetterdaten: Montag, 14.10.2013
Datum Zeit Temp. I. Temp. A. Boden 5 cm Feuchte A. Sonne Luftdruck Regen Wind Sonnenschein
14.10.2013 00:01 22,4 C 6,4 C 3,4 C 92 % 0 % 1015 hPa 0,0 l/m 0,0 km/h (0 Bft) 0 min
14.10.2013 00:04 22,4 C 6,3 C 3,7 C 92 % 0 % 1015 hPa 0,0 l/m 0,0 km/h (0 Bft) 0 min
14.10.2013 00:07 22,4 C 6,2 C 3,9 C 91 % 0 % 1015 hPa 0,0 l/m 0,0 km/h (0 Bft) 0 min
14.10.2013 00:10 22,4 C 6,1 C 3,7 C 91 % 0 % 1015 hPa 0,0 l/m 0,0 km/h (0 Bft) 0 min
14.10.2013 00:13 22,4 C 6,0 C 3,5 C 92 % 0 % 1015 hPa 0,0 l/m 0,0 km/h (0 Bft) 0 min
14.10.2013 00:16 22,4 C 6,0 C 3,2 C 91 % 0 % 1015 hPa 0,0 l/m 0,0 km/h (0 Bft) 0 min
14.10.2013 00:19 22,4 C 5,9 C 2,9 C 92 % 0 % 1015 hPa 0,0 l/m 0,0 km/h (0 Bft) 0 min
14.10.2013 00:22 22,4 C 5,9 C 3,1 C 92 % 0 % 1015 hPa 0,0 l/m 0,0 km/h (0 Bft) 0 min
14.10.2013 00:25 22,4 C 5,9 C 3,1 C 92 % 0 % 1015 hPa 0,0 l/m 0,0 km/h (0 Bft) 0 min
14.10.2013 00:28 22,3 C 5,9 C 3,0 C 92 % 0 % 1015 hPa 0,0 l/m 0,0 km/h (0 Bft) 0 min
14.10.2013 00:31 22,3 C 5,9 C 2,9 C 92 % 0 % 1015 hPa 0,0 l/m 0,0 km/h (0 Bft) 0 min
14.10.2013 00:34 22,3 C 5,9 C 2,9 C 92 % 0 % 1015 hPa 0,0 l/m 0,0 km/h (0 Bft) 0 min
14.10.2013 00:37 22,3 C 5,9 C 3,0 C 92 % 0 % 1015 hPa 0,0 l/m 0,0 km/h (0 Bft) 0 min
14.10.2013 00:40 22,3 C 5,9 C 2,9 C 92 % 0 % 1015 hPa 0,0 l/m 0,0 km/h (0 Bft) 0 min
14.10.2013 00:43 22,3 C 5,8 C 3,0 C 92 % 0 % 1015 hPa 0,0 l/m 0,0 km/h (0 Bft) 0 min
14.10.2013 00:46 22,3 C 5,8 C 3,1 C 92 % 0 % 1015 hPa 0,0 l/m 0,0 km/h (0 Bft) 0 min
14.10.2013 00:49 22,3 C 5,8 C 3,1 C 92 % 0 % 1015 hPa 0,0 l/m 0,0 km/h (0 Bft) 0 min
14.10.2013 00:52 22,3 C 5,8 C 3,1 C 92 % 0 % 1015 hPa 0,0 l/m 0,0 km/h (0 Bft) 0 min
14.10.2013 00:55 22,3 C 5,8 C 3,2 C 92 % 0 % 1015 hPa 0,0 l/m 0,0 km/h (0 Bft) 0 min
14.10.2013 00:58 22,3 C 5,8 C 3,2 C 92 % 0 % 1015 hPa 0,0 l/m 0,0 km/h (0 Bft) 0 min
14.10.2013 01:01 22,3 C 5,8 C 3,2 C 92 % 0 % 1015 hPa 0,0 l/m 0,0 km/h (0 Bft) 0 min
14.10.2013 01:04 22,3 C 5,8 C 3,0 C 92 % 0 % 1015 hPa 0,0 l/m 0,0 km/h (0 Bft) 0 min
14.10.2013 01:07 22,3 C 5,7 C 2,8 C 92 % 0 % 1015 hPa 0,0 l/m 0,0 km/h (0 Bft) 0 min
14.10.2013 01:10 22,3 C 5,7 C 2,7 C 92 % 0 % 1015 hPa 0,0 l/m 0,0 km/h (0 Bft) 0 min
14.10.2013 01:13 22,3 C 5,7 C 2,8 C 92 % 0 % 1015 hPa 0,0 l/m 0,0 km/h (0 Bft) 0 min
14.10.2013 01:16 22,2 C 5,7 C 2,7 C 92 % 0 % 1015 hPa 0,0 l/m 0,0 km/h (0 Bft) 0 min
14.10.2013 01:19 22,3 C 5,7 C 2,8 C 92 % 0 % 1015 hPa 0,0 l/m 0,0 km/h (0 Bft) 0 min
14.10.2013 01:22 22,3 C 5,7 C 2,7 C 92 % 0 % 1015 hPa 0,0 l/m 0,0 km/h (0 Bft) 0 min
14.10.2013 01:25 22,2 C 5,6 C 2,6 C 92 % 0 % 1015 hPa 0,0 l/m 0,0 km/h (0 Bft) 0 min
14.10.2013 01:28 22,2 C 5,6 C 2,7 C 92 % 0 % 1015 hPa 0,0 l/m 0,0 km/h (0 Bft) 0 min
14.10.2013 01:31 22,2 C 5,6 C 3,0 C 92 % 0 % 1015 hPa 0,0 l/m 0,5 km/h (0 Bft) 0 min
14.10.2013 01:34 22,3 C 5,5 C 3,0 C 93 % 0 % 1015 hPa 0,0 l/m 0,0 km/h (0 Bft) 0 min
14.10.2013 01:37 22,3 C 5,4 C 3,0 C 93 % 0 % 1015 hPa 0,0 l/m 0,3 km/h (0 Bft) 0 min
14.10.2013 01:40 22,3 C 5,4 C 3,0 C 93 % 0 % 1015 hPa 0,0 l/m 0,0 km/h (0 Bft) 0 min
14.10.2013 01:43 22,2 C 5,4 C 2,7 C 93 % 0 % 1015 hPa 0,0 l/m 0,0 km/h (0 Bft) 0 min
14.10.2013 01:46 22,3 C 5,4 C 2,6 C 93 % 0 % 1015 hPa 0,0 l/m 0,0 km/h (0 Bft) 0 min
14.10.2013 01:49 22,2 C 5,4 C 2,7 C 93 % 0 % 1015 hPa 0,0 l/m 0,0 km/h (0 Bft) 0 min
14.10.2013 01:52 22,2 C 5,3 C 2,6 C 93 % 0 % 1015 hPa 0,0 l/m 0,0 km/h (0 Bft) 0 min
14.10.2013 01:55 22,2 C 5,3 C 2,6 C 93 % 0 % 1015 hPa 0,0 l/m 0,0 km/h (0 Bft) 0 min
14.10.2013 01:58 22,2 C 5,3 C 2,7 C 93 % 0 % 1015 hPa 0,0 l/m 0,0 km/h (0 Bft) 0 min
14.10.2013 02:01 22,2 C 5,3 C 2,7 C 93 % 0 % 1015 hPa 0,0 l/m 0,0 km/h (0 Bft) 0 min
14.10.2013 02:04 22,2 C 5,4 C 2,6 C 93 % 0 % 1015 hPa 0,0 l/m 0,0 km/h (0 Bft) 0 min
14.10.2013 02:07 22,2 C 5,4 C 2,6 C 93 % 0 % 1015 hPa 0,0 l/m 0,0 km/h (0 Bft) 0 min
14.10.2013 02:10 22,2 C 5,4 C 2,6 C 93 % 0 % 1015 hPa 0,0 l/m 0,0 km/h (0 Bft) 0 min
14.10.2013 02:13 22,2 C 5,4 C 2,6 C 93 % 0 % 1015 hPa 0,0 l/m 0,0 km/h (0 Bft) 0 min
14.10.2013 02:16 22,2 C 5,4 C 2,6 C 93 % 0 % 1015 hPa 0,0 l/m 0,0 km/h (0 Bft) 0 min
14.10.2013 02:19 22,2 C 5,3 C 2,5 C 93 % 0 % 1015 hPa 0,0 l/m 0,0 km/h (0 Bft) 0 min
14.10.2013 02:22 22,2 C 5,3 C 2,4 C 93 % 0 % 1015 hPa 0,0 l/m 0,0 km/h (0 Bft) 0 min
14.10.2013 02:25 22,2 C 5,3 C 2,5 C 93 % 0 % 1015 hPa 0,0 l/m 0,0 km/h (0 Bft) 0 min
14.10.2013 02:28 22,2 C 5,3 C 2,5 C 93 % 0 % 1015 hPa 0,0 l/m 0,0 km/h (0 Bft) 0 min
14.10.2013 02:31 22,2 C 5,3 C 2,5 C 93 % 0 % 1015 hPa 0,0 l/m 0,0 km/h (0 Bft) 0 min
14.10.2013 02:34 22,2 C 5,3 C 2,5 C 93 % 0 % 1015 hPa 0,0 l/m 0,0 km/h (0 Bft) 0 min
14.10.2013 02:37 22,2 C 5,3 C 2,4 C 93 % 0 % 1015 hPa 0,0 l/m 0,0 km/h (0 Bft) 0 min
14.10.2013 02:40 22,2 C 5,3 C 2,4 C 93 % 0 % 1015 hPa 0,0 l/m 0,0 km/h (0 Bft) 0 min
14.10.2013 02:43 22,2 C 5,2 C 2,5 C 93 % 0 % 1015 hPa 0,0 l/m 0,0 km/h (0 Bft) 0 min
14.10.2013 02:46 22,2 C 5,2 C 2,5 C 93 % 0 % 1015 hPa 0,0 l/m 0,0 km/h (0 Bft) 0 min
14.10.2013 02:49 22,2 C 5,2 C 2,6 C 93 % 0 % 1014 hPa 0,0 l/m 0,0 km/h (0 Bft) 0 min
14.10.2013 02:52 22,2 C 5,2 C 2,6 C 93 % 0 % 1014 hPa 0,0 l/m 0,0 km/h (0 Bft) 0 min
14.10.2013 02:55 22,2 C 5,1 C 2,5 C 93 % 0 % 1015 hPa 0,0 l/m 0,0 km/h (0 Bft) 0 min
14.10.2013 02:58 22,2 C 5,1 C 2,5 C 93 % 0 % 1015 hPa 0,0 l/m 0,0 km/h (0 Bft) 0 min
14.10.2013 03:01 22,2 C 5,1 C 2,5 C 93 % 0 % 1015 hPa 0,0 l/m 0,6 km/h (0 Bft) 0 min
14.10.2013 03:04 22,2 C 5,1 C 2,5 C 93 % 0 % 1015 hPa 0,0 l/m 0,6 km/h (0 Bft) 0 min
14.10.2013 03:07 22,2 C 5,0 C 2,3 C 93 % 0 % 1014 hPa 0,0 l/m 0,0 km/h (0 Bft) 0 min
14.10.2013 03:10 22,2 C 5,0 C 2,5 C 94 % 0 % 1014 hPa 0,0 l/m 1,7 km/h (1 Bft) 0 min
14.10.2013 03:13 22,2 C 5,0 C 2,5 C 94 % 0 % 1014 hPa 0,0 l/m 1,3 km/h (1 Bft) 0 min
14.10.2013 03:16 22,1 C 5,0 C 2,5 C 94 % 0 % 1014 hPa 0,0 l/m 0,0 km/h (0 Bft) 0 min
14.10.2013 03:19 22,2 C 5,0 C 2,8 C 94 % 0 % 1014 hPa 0,0 l/m 0,0 km/h (0 Bft) 0 min
14.10.2013 03:22 22,1 C 5,1 C 2,8 C 94 % 0 % 1014 hPa 0,0 l/m 0,0 km/h (0 Bft) 0 min
14.10.2013 03:25 22,1 C 5,0 C 2,9 C 94 % 0 % 1015 hPa 0,0 l/m 0,3 km/h (0 Bft) 0 min
14.10.2013 03:28 22,1 C 5,0 C 2,9 C 95 % 0 % 1014 hPa 0,0 l/m 0,0 km/h (0 Bft) 0 min
14.10.2013 03:31 22,2 C 5,0 C 2,7 C 95 % 0 % 1014 hPa 0,0 l/m 0,0 km/h (0 Bft) 0 min
14.10.2013 03:34 22,1 C 5,0 C 2,7 C 95 % 0 % 1014 hPa 0,0 l/m 0,0 km/h (0 Bft) 0 min
14.10.2013 03:37 22,1 C 5,0 C 2,8 C 95 % 0 % 1014 hPa 0,0 l/m 0,0 km/h (0 Bft) 0 min
14.10.2013 03:40 22,1 C 5,1 C 2,8 C 95 % 0 % 1014 hPa 0,0 l/m 0,0 km/h (0 Bft) 0 min
14.10.2013 03:43 22,1 C 5,1 C 2,9 C 95 % 0 % 1014 hPa 0,0 l/m 0,0 km/h (0 Bft) 0 min
14.10.2013 03:46 22,1 C 5,0 C 3,1 C 95 % 0 % 1014 hPa 0,0 l/m 0,0 km/h (0 Bft) 0 min
14.10.2013 03:49 22,1 C 4,8 C 3,1 C 94 % 0 % 1014 hPa 0,0 l/m 0,0 km/h (0 Bft) 0 min
14.10.2013 03:52 22,1 C 4,7 C 3,0 C 94 % 0 % 1014 hPa 0,0 l/m 0,0 km/h (0 Bft) 0 min
14.10.2013 03:55 22,1 C 4,6 C 3,1 C 95 % 0 % 1014 hPa 0,0 l/m 0,0 km/h (0 Bft) 0 min
14.10.2013 03:58 22,1 C 4,6 C 3,0 C 94 % 0 % 1014 hPa 0,0 l/m 0,0 km/h (0 Bft) 0 min
14.10.2013 04:01 22,1 C 4,5 C 3,1 C 95 % 0 % 1014 hPa 0,0 l/m 0,4 km/h (0 Bft) 0 min
14.10.2013 04:04 22,1 C 4,5 C 3,1 C 95 % 0 % 1014 hPa 0,0 l/m 0,0 km/h (0 Bft) 0 min
14.10.2013 04:07 22,1 C 4,5 C 3,0 C 95 % 0 % 1014 hPa 0,0 l/m 0,0 km/h (0 Bft) 0 min
14.10.2013 04:10 22,1 C 4,5 C 2,9 C 95 % 0 % 1014 hPa 0,0 l/m 0,0 km/h (0 Bft) 0 min
14.10.2013 04:13 22,1 C 4,5 C 2,9 C 95 % 0 % 1015 hPa 0,0 l/m 0,0 km/h (0 Bft) 0 min
14.10.2013 04:16 22,1 C 4,5 C 2,8 C 95 % 0 % 1015 hPa 0,0 l/m 0,0 km/h (0 Bft) 0 min
14.10.2013 04:19 22,2 C 4,5 C 2,8 C 95 % 0 % 1015 hPa 0,0 l/m 0,0 km/h (0 Bft) 0 min
14.10.2013 04:22 22,2 C 4,5 C 3,0 C 95 % 0 % 1014 hPa 0,0 l/m 0,0 km/h (0 Bft) 0 min
14.10.2013 04:25 22,2 C 4,5 C 3,1 C 95 % 0 % 1014 hPa 0,0 l/m 0,0 km/h (0 Bft) 0 min
14.10.2013 04:28 22,2 C 4,5 C 3,0 C 95 % 0 % 1014 hPa 0,0 l/m 0,0 km/h (0 Bft) 0 min
14.10.2013 04:31 22,2 C 4,5 C 3,1 C 95 % 0 % 1014 hPa 0,0 l/m 0,0 km/h (0 Bft) 0 min
14.10.2013 04:34 22,2 C 4,5 C 3,0 C 96 % 0 % 1014 hPa 0,0 l/m 0,0 km/h (0 Bft) 0 min
14.10.2013 04:37 22,3 C 4,5 C 2,9 C 96 % 0 % 1014 hPa 0,0 l/m 0,0 km/h (0 Bft) 0 min
14.10.2013 04:40 22,3 C 4,5 C 3,1 C 96 % 0 % 1014 hPa 0,0 l/m 0,0 km/h (0 Bft) 0 min
14.10.2013 04:43 22,3 C 4,5 C 3,0 C 96 % 0 % 1014 hPa 0,0 l/m 0,0 km/h (0 Bft) 0 min
14.10.2013 04:46 22,3 C 4,5 C 3,0 C 96 % 0 % 1014 hPa 0,0 l/m 0,0 km/h (0 Bft) 0 min
14.10.2013 04:49 22,3 C 4,5 C 3,0 C 96 % 0 % 1014 hPa 0,0 l/m 0,0 km/h (0 Bft) 0 min
14.10.2013 04:52 22,3 C 4,5 C 2,9 C 96 % 0 % 1014 hPa 0,0 l/m 0,0 km/h (0 Bft) 0 min
14.10.2013 04:55 22,3 C 4,5 C 2,9 C 96 % 0 % 1014 hPa 0,0 l/m 0,0 km/h (0 Bft) 0 min
14.10.2013 04:58 22,3 C 4,5 C 2,7 C 96 % 0 % 1014 hPa 0,0 l/m 0,0 km/h (0 Bft) 0 min
14.10.2013 05:01 22,3 C 4,6 C 2,8 C 96 % 0 % 1014 hPa 0,0 l/m 0,0 km/h (0 Bft) 0 min
14.10.2013 05:04 22,3 C 4,6 C 2,8 C 96 % 0 % 1014 hPa 0,0 l/m 0,0 km/h (0 Bft) 0 min
14.10.2013 05:07 22,3 C 4,6 C 2,7 C 96 % 0 % 1014 hPa 0,0 l/m 0,0 km/h (0 Bft) 0 min
14.10.2013 05:10 22,4 C 4,6 C 2,8 C 96 % 0 % 1014 hPa 0,0 l/m 0,0 km/h (0 Bft) 0 min
14.10.2013 05:13 22,3 C 4,6 C 2,8 C 96 % 0 % 1014 hPa 0,0 l/m 0,0 km/h (0 Bft) 0 min
14.10.2013 05:16 22,4 C 4,6 C 2,7 C 95 % 0 % 1014 hPa 0,0 l/m 0,0 km/h (0 Bft) 0 min
14.10.2013 05:19 22,4 C 4,6 C 2,9 C 95 % 0 % 1014 hPa 0,0 l/m 0,0 km/h (0 Bft) 0 min
14.10.2013 05:22 22,4 C 4,5 C 2,8 C 95 % 0 % 1014 hPa 0,0 l/m 0,0 km/h (0 Bft) 0 min
14.10.2013 05:25 22,4 C 4,5 C 2,9 C 95 % 0 % 1014 hPa 0,0 l/m 0,0 km/h (0 Bft) 0 min
14.10.2013 05:28 22,4 C 4,5 C 2,8 C 96 % 0 % 1014 hPa 0,0 l/m 0,0 km/h (0 Bft) 0 min
14.10.2013 05:31 22,4 C 4,5 C 2,6 C 96 % 0 % 1014 hPa 0,0 l/m 0,0 km/h (0 Bft) 0 min
14.10.2013 05:34 22,4 C 4,5 C 2,7 C 96 % 0 % 1014 hPa 0,0 l/m 0,0 km/h (0 Bft) 0 min
14.10.2013 05:37 22,4 C 4,5 C 2,7 C 96 % 0 % 1014 hPa 0,0 l/m 0,0 km/h (0 Bft) 0 min
14.10.2013 05:40 22,4 C 4,5 C 2,9 C 96 % 0 % 1014 hPa 0,0 l/m 0,1 km/h (0 Bft) 0 min
14.10.2013 05:43 22,4 C 4,2 C 2,9 C 95 % 0 % 1014 hPa 0,0 l/m 0,2 km/h (0 Bft) 0 min
14.10.2013 05:46 22,4 C 4,1 C 2,6 C 95 % 0 % 1014 hPa 0,0 l/m 0,0 km/h (0 Bft) 0 min
14.10.2013 05:49 22,4 C 4,0 C 2,7 C 95 % 0 % 1014 hPa 0,0 l/m 0,1 km/h (0 Bft) 0 min
14.10.2013 05:52 22,4 C 3,9 C 2,7 C 95 % 0 % 1014 hPa 0,0 l/m 0,0 km/h (0 Bft) 0 min
14.10.2013 05:55 22,4 C 3,9 C 2,5 C 95 % 0 % 1014 hPa 0,0 l/m 0,2 km/h (0 Bft) 0 min
14.10.2013 05:58 22,4 C 3,8 C 2,6 C 95 % 0 % 1014 hPa 0,0 l/m 0,0 km/h (0 Bft) 0 min
14.10.2013 06:01 22,4 C 3,8 C 2,2 C 95 % 0 % 1014 hPa 0,0 l/m 0,0 km/h (0 Bft) 0 min
14.10.2013 06:04 22,4 C 3,8 C 2,1 C 96 % 0 % 1014 hPa 0,0 l/m 0,0 km/h (0 Bft) 0 min
14.10.2013 06:07 22,4 C 3,8 C 2,1 C 96 % 0 % 1014 hPa 0,0 l/m 0,0 km/h (0 Bft) 0 min
14.10.2013 06:10 22,4 C 3,8 C 2,0 C 96 % 0 % 1014 hPa 0,0 l/m 0,0 km/h (0 Bft) 0 min
14.10.2013 06:13 22,4 C 3,8 C 2,2 C 96 % 0 % 1014 hPa 0,0 l/m 0,7 km/h (0 Bft) 0 min
14.10.2013 06:16 22,4 C 3,8 C 2,0 C 96 % 0 % 1014 hPa 0,0 l/m 1,3 km/h (1 Bft) 0 min
14.10.2013 06:19 22,4 C 3,8 C 1,9 C 96 % 0 % 1014 hPa 0,0 l/m 0,0 km/h (0 Bft) 0 min
14.10.2013 06:22 22,4 C 3,9 C 1,9 C 96 % 0 % 1014 hPa 0,0 l/m 0,0 km/h (0 Bft) 0 min
14.10.2013 06:25 22,4 C 3,9 C 1,9 C 96 % 0 % 1014 hPa 0,0 l/m 0,0 km/h (0 Bft) 0 min
14.10.2013 06:28 22,5 C 3,9 C 1,8 C 96 % 0 % 1014 hPa 0,0 l/m 0,0 km/h (0 Bft) 0 min
14.10.2013 06:31 22,5 C 4,0 C 1,8 C 96 % 0 % 1014 hPa 0,0 l/m 0,0 km/h (0 Bft) 0 min
14.10.2013 06:34 22,5 C 3,9 C 1,8 C 96 % 0 % 1014 hPa 0,0 l/m 0,0 km/h (0 Bft) 0 min
14.10.2013 06:37 22,6 C 3,9 C 1,9 C 96 % 0 % 1014 hPa 0,0 l/m 0,0 km/h (0 Bft) 0 min
14.10.2013 06:40 22,6 C 3,9 C 1,9 C 96 % 0 % 1014 hPa 0,0 l/m 0,0 km/h (0 Bft) 0 min
14.10.2013 06:43 22,6 C 4,0 C 1,9 C 96 % 0 % 1014 hPa 0,0 l/m 0,0 km/h (0 Bft) 0 min
14.10.2013 06:46 22,6 C 4,0 C 2,0 C 96 % 0 % 1014 hPa 0,0 l/m 0,0 km/h (0 Bft) 0 min
14.10.2013 06:49 22,6 C 3,9 C 2,3 C 96 % 0 % 1014 hPa 0,0 l/m 0,0 km/h (0 Bft) 0 min
14.10.2013 06:52 22,6 C 3,9 C 2,1 C 96 % 0 % 1014 hPa 0,0 l/m 0,0 km/h (0 Bft) 0 min
14.10.2013 06:55 22,6 C 3,8 C 2,0 C 96 % 0 % 1014 hPa 0,0 l/m 0,0 km/h (0 Bft) 0 min
14.10.2013 06:58 22,6 C 3,8 C 2,0 C 96 % 0 % 1014 hPa 0,0 l/m 0,0 km/h (0 Bft) 0 min
14.10.2013 07:01 22,6 C 3,9 C 1,9 C 96 % 0 % 1014 hPa 0,0 l/m 0,0 km/h (0 Bft) 0 min
14.10.2013 07:04 22,6 C 3,9 C 2,0 C 96 % 0 % 1014 hPa 0,0 l/m 0,0 km/h (0 Bft) 0 min
14.10.2013 07:07 22,6 C 3,9 C 2,3 C 96 % 0 % 1014 hPa 0,0 l/m 0,4 km/h (0 Bft) 0 min
14.10.2013 07:10 22,6 C 3,9 C 2,1 C 96 % 0 % 1014 hPa 0,0 l/m 0,6 km/h (0 Bft) 0 min
14.10.2013 07:13 22,6 C 3,9 C 2,2 C 96 % 0 % 1014 hPa 0,0 l/m 0,0 km/h (0 Bft) 0 min
14.10.2013 07:16 22,6 C 3,9 C 2,1 C 96 % 0 % 1014 hPa 0,0 l/m 0,0 km/h (0 Bft) 0 min
14.10.2013 07:19 22,6 C 3,9 C 2,0 C 96 % 0 % 1014 hPa 0,0 l/m 0,0 km/h (0 Bft) 0 min
14.10.2013 07:22 22,6 C 3,9 C 2,0 C 97 % 1 % 1014 hPa 0,0 l/m 0,0 km/h (0 Bft) 0 min
14.10.2013 07:25 22,6 C 4,0 C 2,1 C 97 % 1 % 1014 hPa 0,0 l/m 0,0 km/h (0 Bft) 0 min
14.10.2013 07:28 22,6 C 4,0 C 2,1 C 97 % 1 % 1014 hPa 0,0 l/m 1,6 km/h (1 Bft) 0 min
14.10.2013 07:31 22,6 C 4,0 C 2,0 C 97 % 1 % 1015 hPa 0,0 l/m 2,3 km/h (1 Bft) 0 min
14.10.2013 07:34 22,5 C 4,1 C 1,9 C 97 % 2 % 1015 hPa 0,0 l/m 0,0 km/h (0 Bft) 0 min
14.10.2013 07:37 21,4 C 4,1 C 1,8 C 97 % 2 % 1015 hPa 0,0 l/m 0,0 km/h (0 Bft) 0 min
14.10.2013 07:40 21,4 C 4,1 C 1,8 C 97 % 3 % 1015 hPa 0,0 l/m 0,0 km/h (0 Bft) 0 min
14.10.2013 07:43 18,9 C 4,1 C 2,1 C 97 % 3 % 1015 hPa 0,0 l/m 0,0 km/h (0 Bft) 0 min
14.10.2013 07:46 18,6 C 4,2 C 2,1 C 97 % 4 % 1015 hPa 0,0 l/m 0,0 km/h (0 Bft) 0 min
14.10.2013 07:49 19,0 C 4,2 C 2,5 C 97 % 4 % 1015 hPa 0,0 l/m 0,0 km/h (0 Bft) 0 min
14.10.2013 07:52 19,5 C 4,1 C 2,4 C 97 % 5 % 1015 hPa 0,0 l/m 0,0 km/h (0 Bft) 0 min
14.10.2013 07:55 20,0 C 4,1 C 2,6 C 97 % 5 % 1015 hPa 0,0 l/m 0,0 km/h (0 Bft) 0 min
14.10.2013 07:58 20,8 C 4,1 C 2,5 C 97 % 5 % 1015 hPa 0,0 l/m 0,0 km/h (0 Bft) 0 min
14.10.2013 08:01 21,0 C 4,1 C 2,6 C 97 % 6 % 1015 hPa 0,0 l/m 0,0 km/h (0 Bft) 0 min
14.10.2013 08:04 21,2 C 4,1 C 2,7 C 97 % 6 % 1015 hPa 0,0 l/m 0,0 km/h (0 Bft) 0 min
14.10.2013 08:07 21,3 C 4,2 C 2,7 C 97 % 6 % 1015 hPa 0,0 l/m 0,0 km/h (0 Bft) 0 min
14.10.2013 08:10 21,4 C 4,2 C 2,7 C 97 % 7 % 1015 hPa 0,0 l/m 0,0 km/h (0 Bft) 0 min
14.10.2013 08:13 21,5 C 4,2 C 2,5 C 97 % 7 % 1015 hPa 0,0 l/m 0,0 km/h (0 Bft) 0 min
14.10.2013 08:16 21,6 C 4,3 C 2,6 C 97 % 7 % 1015 hPa 0,0 l/m 0,0 km/h (0 Bft) 0 min
14.10.2013 08:19 21,6 C 4,3 C 3,3 C 98 % 7 % 1015 hPa 0,0 l/m 0,0 km/h (0 Bft) 0 min
14.10.2013 08:22 21,8 C 4,2 C 3,1 C 98 % 7 % 1015 hPa 0,0 l/m 0,0 km/h (0 Bft) 0 min
14.10.2013 08:25 21,8 C 4,2 C 2,9 C 98 % 8 % 1015 hPa 0,0 l/m 0,0 km/h (0 Bft) 0 min
14.10.2013 08:28 21,8 C 4,1 C 2,9 C 98 % 8 % 1015 hPa 0,0 l/m 0,0 km/h (0 Bft) 0 min
14.10.2013 08:31 21,8 C 4,1 C 2,8 C 98 % 8 % 1015 hPa 0,0 l/m 0,0 km/h (0 Bft) 0 min
14.10.2013 08:34 21,9 C 4,2 C 2,8 C 98 % 9 % 1015 hPa 0,0 l/m 0,0 km/h (0 Bft) 0 min
14.10.2013 08:37 21,9 C 4,2 C 3,1 C 98 % 10 % 1015 hPa 0,0 l/m 0,0 km/h (0 Bft) 0 min
14.10.2013 08:40 22,0 C 4,1 C 3,3 C 97 % 10 % 1015 hPa 0,0 l/m 0,0 km/h (0 Bft) 0 min
14.10.2013 08:43 22,0 C 4,1 C 3,4 C 97 % 11 % 1015 hPa 0,0 l/m 0,0 km/h (0 Bft) 0 min
14.10.2013 08:46 22,0 C 4,2 C 3,3 C 97 % 11 % 1015 hPa 0,0 l/m 0,0 km/h (0 Bft) 0 min
14.10.2013 08:49 22,1 C 4,3 C 3,6 C 97 % 11 % 1015 hPa 0,0 l/m 0,0 km/h (0 Bft) 0 min
14.10.2013 08:52 22,1 C 4,3 C 3,5 C 97 % 12 % 1015 hPa 0,0 l/m 2,6 km/h (1 Bft) 0 min
14.10.2013 08:55 22,0 C 4,6 C 4,0 C 97 % 12 % 1015 hPa 0,0 l/m 6,5 km/h (2 Bft) 0 min
14.10.2013 08:58 22,0 C 4,8 C 4,3 C 96 % 12 % 1015 hPa 0,0 l/m 5,2 km/h (1 Bft) 0 min
14.10.2013 09:01 22,1 C 5,0 C 4,4 C 96 % 13 % 1015 hPa 0,0 l/m 5,2 km/h (1 Bft) 0 min
14.10.2013 09:04 22,2 C 5,1 C 4,5 C 96 % 14 % 1015 hPa 0,0 l/m 5,0 km/h (1 Bft) 0 min
14.10.2013 09:07 22,1 C 5,1 C 4,6 C 96 % 14 % 1015 hPa 0,0 l/m 4,5 km/h (1 Bft) 0 min
14.10.2013 09:10 22,1 C 5,2 C 4,7 C 96 % 14 % 1015 hPa 0,0 l/m 3,9 km/h (1 Bft) 0 min
14.10.2013 09:13 22,2 C 5,3 C 4,9 C 96 % 15 % 1015 hPa 0,0 l/m 3,9 km/h (1 Bft) 0 min
14.10.2013 09:16 22,2 C 5,5 C 5,0 C 96 % 15 % 1015 hPa 0,0 l/m 4,0 km/h (1 Bft) 0 min
14.10.2013 09:19 22,2 C 5,6 C 5,1 C 96 % 15 % 1015 hPa 0,0 l/m 4,5 km/h (1 Bft) 0 min
14.10.2013 09:22 22,2 C 5,7 C 5,3 C 96 % 15 % 1015 hPa 0,0 l/m 4,8 km/h (1 Bft) 0 min
14.10.2013 09:25 22,2 C 5,9 C 5,5 C 96 % 15 % 1015 hPa 0,0 l/m 4,0 km/h (1 Bft) 0 min
14.10.2013 09:28 22,2 C 6,1 C 5,7 C 96 % 16 % 1015 hPa 0,0 l/m 5,3 km/h (1 Bft) 0 min
14.10.2013 09:31 22,2 C 6,3 C 5,9 C 96 % 15 % 1015 hPa 0,0 l/m 3,0 km/h (1 Bft) 0 min
14.10.2013 09:34 22,2 C 6,5 C 6,1 C 96 % 16 % 1015 hPa 0,0 l/m 5,0 km/h (1 Bft) 0 min
14.10.2013 09:37 22,2 C 6,6 C 6,2 C 96 % 16 % 1015 hPa 0,0 l/m 6,1 km/h (2 Bft) 0 min
14.10.2013 09:40 22,3 C 6,7 C 6,4 C 95 % 16 % 1015 hPa 0,0 l/m 4,7 km/h (1 Bft) 0 min
14.10.2013 09:43 22,2 C 6,8 C 6,5 C 95 % 16 % 1015 hPa 0,0 l/m 5,6 km/h (1 Bft) 0 min
14.10.2013 09:46 22,2 C 6,9 C 6,6 C 95 % 18 % 1015 hPa 0,0 l/m 5,2 km/h (1 Bft) 0 min
14.10.2013 09:49 22,2 C 7,1 C 6,8 C 95 % 18 % 1015 hPa 0,0 l/m 5,3 km/h (1 Bft) 0 min
14.10.2013 09:52 22,3 C 7,2 C 7,1 C 95 % 23 % 1015 hPa 0,0 l/m 10,0 km/h (2 Bft) 0 min
14.10.2013 09:55 22,3 C 7,4 C 7,5 C 95 % 21 % 1014 hPa 0,0 l/m 12,2 km/h (2 Bft) 0 min
14.10.2013 09:58 22,3 C 7,4 C 7,9 C 95 % 20 % 1014 hPa 0,0 l/m 9,8 km/h (2 Bft) 0 min
14.10.2013 10:01 22,3 C 7,4 C 8,1 C 95 % 24 % 1014 hPa 0,0 l/m 9,0 km/h (2 Bft) 0 min
14.10.2013 10:04 22,4 C 7,8 C 8,2 C 95 % 26 % 1014 hPa 0,0 l/m 13,1 km/h (3 Bft) 0 min
14.10.2013 10:07 22,4 C 8,0 C 8,5 C 95 % 31 % 1014 hPa 0,0 l/m 14,6 km/h (3 Bft) 0 min
14.10.2013 10:10 22,4 C 8,0 C 8,6 C 95 % 34 % 1014 hPa 0,0 l/m 9,7 km/h (2 Bft) 0 min
14.10.2013 10:13 22,3 C 8,1 C 8,9 C 95 % 34 % 1014 hPa 0,0 l/m 16,6 km/h (3 Bft) 0 min
14.10.2013 10:16 22,4 C 8,2 C 9,2 C 95 % 33 % 1014 hPa 0,0 l/m 16,0 km/h (3 Bft) 0 min
14.10.2013 10:19 22,4 C 8,3 C 9,4 C 94 % 33 % 1014 hPa 0,0 l/m 12,7 km/h (3 Bft) 0 min
14.10.2013 10:22 22,4 C 8,3 C 9,5 C 94 % 36 % 1014 hPa 0,0 l/m 16,6 km/h (3 Bft) 0 min
14.10.2013 10:25 22,4 C 8,4 C 9,8 C 94 % 37 % 1014 hPa 0,0 l/m 14,5 km/h (3 Bft) 0 min
14.10.2013 10:28 22,3 C 8,5 C 10,1 C 94 % 38 % 1014 hPa 0,0 l/m 20,0 km/h (4 Bft) 0 min
14.10.2013 10:31 22,4 C 8,6 C 10,2 C 94 % 39 % 1014 hPa 0,0 l/m 15,5 km/h (3 Bft) 0 min
14.10.2013 10:34 22,3 C 8,7 C 10,6 C 94 % 40 % 1014 hPa 0,0 l/m 14,6 km/h (3 Bft) 0 min
14.10.2013 10:37 22,4 C 8,8 C 10,7 C 93 % 40 % 1014 hPa 0,0 l/m 16,8 km/h (3 Bft) 0 min
14.10.2013 10:40 22,4 C 8,9 C 10,8 C 93 % 40 % 1014 hPa 0,0 l/m 13,0 km/h (3 Bft) 0 min
14.10.2013 10:43 22,4 C 8,9 C 10,8 C 93 % 37 % 1014 hPa 0,0 l/m 13,8 km/h (3 Bft) 0 min
14.10.2013 10:46 22,3 C 9,0 C 10,8 C 92 % 41 % 1014 hPa 0,0 l/m 11,6 km/h (2 Bft) 0 min
14.10.2013 10:49 22,4 C 9,1 C 11,2 C 92 % 43 % 1014 hPa 0,0 l/m 15,0 km/h (3 Bft) 0 min
14.10.2013 10:52 22,4 C 9,1 C 11,2 C 91 % 40 % 1014 hPa 0,0 l/m 12,6 km/h (3 Bft) 0 min
14.10.2013 10:55 22,3 C 9,3 C 11,4 C 91 % 40 % 1014 hPa 0,0 l/m 12,6 km/h (3 Bft) 0 min
14.10.2013 10:58 22,4 C 9,4 C 11,7 C 90 % 45 % 1014 hPa 0,0 l/m 15,5 km/h (3 Bft) 0 min
14.10.2013 11:01 22,3 C 9,5 C 11,7 C 90 % 40 % 1014 hPa 0,0 l/m 16,7 km/h (3 Bft) 0 min
14.10.2013 11:04 22,4 C 9,7 C 12,6 C 90 % 40 % 1014 hPa 0,0 l/m 16,7 km/h (3 Bft) 0 min
14.10.2013 11:07 22,3 C 9,9 C 12,6 C 89 % 49 % 1014 hPa 0,0 l/m 15,6 km/h (3 Bft) 0 min
14.10.2013 11:10 22,4 C 10,1 C 12,8 C 89 % 47 % 1014 hPa 0,0 l/m 14,4 km/h (3 Bft) 0 min
14.10.2013 11:13 22,4 C 10,1 C 12,8 C 88 % 49 % 1014 hPa 0,0 l/m 14,5 km/h (3 Bft) 0 min
14.10.2013 11:16 22,4 C 10,3 C 12,8 C 88 % 49 % 1014 hPa 0,0 l/m 9,9 km/h (2 Bft) 0 min
14.10.2013 11:19 22,4 C 10,3 C 12,9 C 88 % 44 % 1014 hPa 0,0 l/m 8,7 km/h (2 Bft) 0 min
14.10.2013 11:22 22,3 C 10,3 C 13,4 C 88 % 44 % 1014 hPa 0,0 l/m 10,2 km/h (2 Bft) 0 min
14.10.2013 11:25 22,3 C 10,5 C 13,4 C 86 % 54 % 1014 hPa 0,0 l/m 16,4 km/h (3 Bft) 3 min
14.10.2013 11:28 22,4 C 10,6 C 13,4 C 85 % 54 % 1014 hPa 0,0 l/m 8,9 km/h (2 Bft) 3 min
14.10.2013 11:31 22,3 C 10,7 C 13,2 C 85 % 50 % 1014 hPa 0,0 l/m 14,1 km/h (3 Bft) 0 min
14.10.2013 11:34 22,3 C 10,8 C 13,1 C 84 % 54 % 1014 hPa 0,0 l/m 14,7 km/h (3 Bft) 3 min
14.10.2013 11:37 22,3 C 10,9 C 13,1 C 84 % 55 % 1014 hPa 0,0 l/m 14,7 km/h (3 Bft) 3 min
14.10.2013 11:40 22,3 C 11,0 C 14,0 C 83 % 60 % 1014 hPa 0,0 l/m 12,9 km/h (3 Bft) 3 min
14.10.2013 11:43 22,3 C 11,2 C 14,4 C 84 % 62 % 1014 hPa 0,0 l/m 10,7 km/h (2 Bft) 3 min
14.10.2013 11:46 22,3 C 11,3 C 14,7 C 84 % 64 % 1014 hPa 0,0 l/m 12,8 km/h (3 Bft) 3 min
14.10.2013 11:49 22,3 C 11,4 C 14,5 C 83 % 66 % 1014 hPa 0,0 l/m 16,5 km/h (3 Bft) 3 min
14.10.2013 11:52 22,4 C 11,5 C 14,5 C 82 % 61 % 1014 hPa 0,0 l/m 11,1 km/h (2 Bft) 3 min
14.10.2013 11:55 22,4 C 11,5 C 14,3 C 81 % 59 % 1014 hPa 0,0 l/m 16,9 km/h (3 Bft) 3 min
14.10.2013 11:58 22,4 C 11,5 C 14,3 C 79 % 58 % 1014 hPa 0,0 l/m 20,3 km/h (4 Bft) 3 min
14.10.2013 12:01 22,3 C 11,5 C 14,1 C 79 % 58 % 1014 hPa 0,0 l/m 19,6 km/h (3 Bft) 3 min
14.10.2013 12:04 22,4 C 11,5 C 13,7 C 79 % 57 % 1014 hPa 0,0 l/m 17,3 km/h (3 Bft) 3 min
14.10.2013 12:07 22,4 C 11,5 C 14,0 C 78 % 60 % 1014 hPa 0,0 l/m 17,9 km/h (3 Bft) 3 min
14.10.2013 12:10 22,4 C 11,6 C 13,9 C 78 % 60 % 1014 hPa 0,0 l/m 17,9 km/h (3 Bft) 3 min
14.10.2013 12:13 22,4 C 11,6 C 14,0 C 78 % 66 % 1014 hPa 0,0 l/m 20,7 km/h (4 Bft) 3 min
14.10.2013 12:16 22,4 C 11,7 C 14,3 C 78 % 66 % 1014 hPa 0,0 l/m 14,0 km/h (3 Bft) 3 min
14.10.2013 12:19 22,5 C 11,8 C 14,5 C 78 % 51 % 1014 hPa 0,0 l/m 10,0 km/h (2 Bft) 0 min
14.10.2013 12:22 22,4 C 11,8 C 14,1 C 78 % 54 % 1014 hPa 0,0 l/m 13,8 km/h (3 Bft) 3 min
14.10.2013 12:25 22,4 C 11,7 C 13,9 C 78 % 52 % 1014 hPa 0,0 l/m 12,8 km/h (3 Bft) 0 min
14.10.2013 12:28 22,5 C 11,7 C 13,9 C 78 % 52 % 1014 hPa 0,0 l/m 10,9 km/h (2 Bft) 0 min
14.10.2013 12:31 22,4 C 11,7 C 13,5 C 78 % 52 % 1014 hPa 0,0 l/m 12,3 km/h (3 Bft) 0 min
14.10.2013 12:34 22,4 C 11,7 C 13,5 C 78 % 44 % 1014 hPa 0,0 l/m 11,7 km/h (2 Bft) 0 min
14.10.2013 12:37 22,4 C 11,8 C 13,7 C 78 % 44 % 1014 hPa 0,0 l/m 10,1 km/h (2 Bft) 0 min
14.10.2013 12:40 22,4 C 11,8 C 14,1 C 79 % 52 % 1014 hPa 0,0 l/m 7,3 km/h (2 Bft) 0 min
14.10.2013 12:43 22,4 C 11,9 C 14,2 C 79 % 52 % 1014 hPa 0,0 l/m 12,1 km/h (2 Bft) 0 min
14.10.2013 12:46 22,4 C 11,9 C 14,2 C 78 % 53 % 1014 hPa 0,0 l/m 11,5 km/h (2 Bft) 3 min
14.10.2013 12:49 22,4 C 11,9 C 14,2 C 78 % 50 % 1014 hPa 0,0 l/m 14,5 km/h (3 Bft) 0 min
14.10.2013 12:52 22,4 C 12,0 C 14,0 C 78 % 47 % 1014 hPa 0,0 l/m 13,6 km/h (3 Bft) 0 min
14.10.2013 12:55 22,4 C 11,9 C 14,0 C 77 % 49 % 1014 hPa 0,0 l/m 10,9 km/h (2 Bft) 0 min
14.10.2013 12:58 22,4 C 12,0 C 14,1 C 77 % 53 % 1014 hPa 0,0 l/m 10,0 km/h (2 Bft) 0 min
14.10.2013 13:01 22,4 C 12,1 C 14,2 C 77 % 50 % 1014 hPa 0,0 l/m 11,1 km/h (2 Bft) 0 min
14.10.2013 13:04 22,4 C 12,1 C 14,1 C 78 % 52 % 1014 hPa 0,0 l/m 6,9 km/h (2 Bft) 0 min
14.10.2013 13:07 22,4 C 12,2 C 14,3 C 78 % 51 % 1014 hPa 0,0 l/m 8,4 km/h (2 Bft) 0 min
14.10.2013 13:10 22,4 C 12,3 C 14,3 C 78 % 50 % 1013 hPa 0,0 l/m 11,0 km/h (2 Bft) 0 min
14.10.2013 13:13 22,4 C 12,3 C 14,4 C 78 % 54 % 1013 hPa 0,0 l/m 7,8 km/h (2 Bft) 3 min
14.10.2013 13:16 22,4 C 12,3 C 14,5 C 77 % 56 % 1013 hPa 0,0 l/m 6,6 km/h (2 Bft) 3 min
14.10.2013 13:19 22,4 C 12,3 C 14,9 C 77 % 58 % 1013 hPa 0,0 l/m 2,1 km/h (1 Bft) 3 min
14.10.2013 13:22 22,4 C 12,3 C 15,5 C 78 % 58 % 1013 hPa 0,0 l/m 1,3 km/h (1 Bft) 3 min
14.10.2013 13:25 22,4 C 12,4 C 15,6 C 78 % 64 % 1013 hPa 0,0 l/m 5,7 km/h (1 Bft) 3 min
14.10.2013 13:28 22,4 C 12,5 C 15,4 C 78 % 64 % 1013 hPa 0,0 l/m 5,7 km/h (1 Bft) 3 min
14.10.2013 13:31 22,4 C 12,5 C 15,4 C 78 % 64 % 1013 hPa 0,0 l/m 9,0 km/h (2 Bft) 3 min
14.10.2013 13:34 22,4 C 12,5 C 15,4 C 77 % 67 % 1013 hPa 0,0 l/m 7,8 km/h (2 Bft) 3 min
14.10.2013 13:37 22,4 C 12,5 C 15,5 C 77 % 66 % 1013 hPa 0,0 l/m 10,8 km/h (2 Bft) 3 min
14.10.2013 13:40 22,4 C 12,6 C 15,5 C 76 % 70 % 1013 hPa 0,0 l/m 12,4 km/h (3 Bft) 3 min
14.10.2013 13:43 22,4 C 12,7 C 15,7 C 77 % 69 % 1013 hPa 0,0 l/m 9,4 km/h (2 Bft) 3 min
14.10.2013 13:46 22,4 C 12,7 C 15,8 C 77 % 64 % 1013 hPa 0,0 l/m 9,9 km/h (2 Bft) 3 min
14.10.2013 13:49 22,4 C 12,8 C 15,9 C 77 % 60 % 1013 hPa 0,0 l/m 8,4 km/h (2 Bft) 3 min
14.10.2013 13:52 22,4 C 12,8 C 16,1 C 77 % 58 % 1013 hPa 0,0 l/m 10,8 km/h (2 Bft) 3 min
14.10.2013 13:55 22,4 C 12,8 C 16,1 C 77 % 55 % 1013 hPa 0,0 l/m 10,8 km/h (2 Bft) 3 min
14.10.2013 13:58 22,4 C 12,8 C 16,1 C 77 % 55 % 1013 hPa 0,0 l/m 2,0 km/h (1 Bft) 3 min
14.10.2013 14:01 22,4 C 12,8 C 16,2 C 77 % 53 % 1013 hPa 0,0 l/m 3,2 km/h (1 Bft) 0 min
14.10.2013 14:04 22,5 C 12,9 C 16,2 C 77 % 53 % 1013 hPa 0,0 l/m 9,0 km/h (2 Bft) 0 min
14.10.2013 14:07 22,5 C 13,0 C 16,3 C 77 % 27 % 1013 hPa 0,0 l/m 7,4 km/h (2 Bft) 0 min
14.10.2013 14:10 22,5 C 13,1 C 16,5 C 77 % 27 % 1013 hPa 0,0 l/m 9,4 km/h (2 Bft) 0 min
14.10.2013 14:13 22,5 C 13,2 C 16,5 C 77 % 67 % 1013 hPa 0,0 l/m 9,4 km/h (2 Bft) 3 min
14.10.2013 14:16 22,5 C 13,2 C 16,0 C 76 % 67 % 1013 hPa 0,0 l/m 9,8 km/h (2 Bft) 3 min
14.10.2013 14:19 22,5 C 13,2 C 16,0 C 76 % 59 % 1013 hPa 0,0 l/m 10,2 km/h (2 Bft) 3 min
14.10.2013 14:22 22,6 C 13,2 C 15,7 C 76 % 63 % 1012 hPa 0,0 l/m 8,4 km/h (2 Bft) 3 min
14.10.2013 14:25 22,6 C 13,3 C 15,5 C 76 % 64 % 1012 hPa 0,0 l/m 9,5 km/h (2 Bft) 3 min
14.10.2013 14:28 22,6 C 13,3 C 15,5 C 76 % 59 % 1012 hPa 0,0 l/m 9,7 km/h (2 Bft) 3 min
14.10.2013 14:31 22,6 C 13,4 C 15,5 C 76 % 59 % 1012 hPa 0,0 l/m 7,3 km/h (2 Bft) 3 min
14.10.2013 14:34 22,6 C 13,4 C 15,4 C 76 % 42 % 1012 hPa 0,0 l/m 8,8 km/h (2 Bft) 0 min
14.10.2013 14:37 22,6 C 13,4 C 15,3 C 76 % 48 % 1012 hPa 0,0 l/m 7,6 km/h (2 Bft) 0 min
14.10.2013 14:40 22,7 C 13,4 C 15,3 C 76 % 48 % 1012 hPa 0,0 l/m 9,2 km/h (2 Bft) 0 min
14.10.2013 14:43 22,7 C 13,4 C 15,3 C 76 % 43 % 1012 hPa 0,0 l/m 7,5 km/h (2 Bft) 0 min
14.10.2013 14:46 22,7 C 13,4 C 15,3 C 76 % 39 % 1012 hPa 0,0 l/m 3,4 km/h (1 Bft) 0 min
14.10.2013 14:49 22,7 C 13,4 C 15,4 C 76 % 38 % 1012 hPa 0,0 l/m 3,1 km/h (1 Bft) 0 min
14.10.2013 14:52 22,7 C 13,4 C 15,4 C 76 % 38 % 1012 hPa 0,0 l/m 4,3 km/h (1 Bft) 0 min
14.10.2013 14:55 22,7 C 13,4 C 15,3 C 77 % 37 % 1012 hPa 0,0 l/m 3,8 km/h (1 Bft) 0 min
14.10.2013 14:58 22,8 C 13,4 C 15,1 C 77 % 37 % 1012 hPa 0,0 l/m 4,6 km/h (1 Bft) 0 min
14.10.2013 15:01 22,8 C 13,5 C 15,0 C 77 % 41 % 1012 hPa 0,0 l/m 5,6 km/h (1 Bft) 0 min
14.10.2013 15:04 22,8 C 13,5 C 15,0 C 77 % 45 % 1012 hPa 0,0 l/m 5,6 km/h (1 Bft) 0 min
14.10.2013 15:07 22,8 C 13,5 C 15,1 C 77 % 47 % 1012 hPa 0,0 l/m 3,7 km/h (1 Bft) 0 min
14.10.2013 15:10 22,8 C 13,6 C 15,3 C 77 % 47 % 1012 hPa 0,0 l/m 3,1 km/h (1 Bft) 0 min
14.10.2013 15:13 22,8 C 13,6 C 15,4 C 77 % 65 % 1012 hPa 0,0 l/m 3,0 km/h (1 Bft) 3 min
14.10.2013 15:16 22,8 C 13,7 C 15,8 C 77 % 70 % 1012 hPa 0,0 l/m 0,0 km/h (0 Bft) 3 min
14.10.2013 15:19 22,8 C 13,8 C 16,0 C 77 % 65 % 1012 hPa 0,0 l/m 3,9 km/h (1 Bft) 3 min
14.10.2013 15:22 22,8 C 13,8 C 15,7 C 77 % 59 % 1012 hPa 0,0 l/m 0,0 km/h (0 Bft) 3 min
14.10.2013 15:25 22,8 C 13,8 C 15,7 C 77 % 59 % 1012 hPa 0,0 l/m 0,0 km/h (0 Bft) 3 min
14.10.2013 15:28 22,8 C 13,8 C 15,5 C 77 % 45 % 1012 hPa 0,0 l/m 0,0 km/h (0 Bft) 0 min
14.10.2013 15:31 22,9 C 13,8 C 15,5 C 78 % 44 % 1012 hPa 0,0 l/m 0,0 km/h (0 Bft) 0 min
14.10.2013 15:34 22,9 C 13,8 C 15,0 C 78 % 46 % 1012 hPa 0,0 l/m 0,0 km/h (0 Bft) 0 min
14.10.2013 15:37 22,9 C 13,8 C 14,9 C 77 % 48 % 1012 hPa 0,0 l/m 0,0 km/h (0 Bft) 0 min
14.10.2013 15:40 22,8 C 13,8 C 14,8 C 77 % 51 % 1012 hPa 0,0 l/m 0,0 km/h (0 Bft) 3 min
14.10.2013 15:43 22,8 C 13,8 C 14,6 C 77 % 49 % 1012 hPa 0,0 l/m 0,0 km/h (0 Bft) 3 min
14.10.2013 15:46 22,8 C 13,8 C 14,7 C 77 % 49 % 1012 hPa 0,0 l/m 0,0 km/h (0 Bft) 3 min
14.10.2013 15:49 22,8 C 13,9 C 14,8 C 77 % 40 % 1012 hPa 0,0 l/m 0,0 km/h (0 Bft) 0 min
14.10.2013 15:52 22,8 C 13,9 C 14,8 C 77 % 41 % 1012 hPa 0,0 l/m 0,0 km/h (0 Bft) 0 min
14.10.2013 15:55 22,8 C 13,9 C 14,6 C 77 % 37 % 1012 hPa 0,0 l/m 0,0 km/h (0 Bft) 0 min
14.10.2013 15:58 22,8 C 13,8 C 14,4 C 76 % 37 % 1012 hPa 0,0 l/m 0,0 km/h (0 Bft) 0 min
14.10.2013 16:01 22,8 C 13,8 C 14,5 C 76 % 38 % 1012 hPa 0,0 l/m 0,0 km/h (0 Bft) 0 min
14.10.2013 16:04 22,8 C 13,8 C 14,6 C 77 % 38 % 1012 hPa 0,0 l/m 0,0 km/h (0 Bft) 0 min
14.10.2013 16:07 22,8 C 13,8 C 14,7 C 77 % 38 % 1012 hPa 0,0 l/m 0,0 km/h (0 Bft) 0 min
14.10.2013 16:10 22,8 C 13,8 C 14,6 C 76 % 44 % 1012 hPa 0,0 l/m 0,0 km/h (0 Bft) 3 min
14.10.2013 16:13 22,4 C 13,8 C 14,7 C 76 % 44 % 1012 hPa 0,0 l/m 0,0 km/h (0 Bft) 3 min
14.10.2013 16:16 22,0 C 13,7 C 14,7 C 76 % 44 % 1012 hPa 0,0 l/m 0,0 km/h (0 Bft) 3 min
14.10.2013 16:19 21,6 C 13,7 C 14,7 C 76 % 44 % 1012 hPa 0,0 l/m 0,0 km/h (0 Bft) 3 min
14.10.2013 16:22 21,4 C 13,7 C 14,6 C 76 % 40 % 1012 hPa 0,0 l/m 0,0 km/h (0 Bft) 3 min
14.10.2013 16:25 21,5 C 13,7 C 14,5 C 76 % 40 % 1012 hPa 0,0 l/m 0,0 km/h (0 Bft) 3 min
14.10.2013 16:28 21,7 C 13,6 C 14,3 C 76 % 40 % 1012 hPa 0,0 l/m 0,0 km/h (0 Bft) 3 min
14.10.2013 16:31 21,8 C 13,6 C 14,3 C 77 % 41 % 1012 hPa 0,0 l/m 0,0 km/h (0 Bft) 3 min
14.10.2013 16:34 22,0 C 13,6 C 14,1 C 77 % 41 % 1012 hPa 0,0 l/m 0,0 km/h (0 Bft) 3 min
14.10.2013 16:37 22,1 C 13,6 C 14,2 C 77 % 41 % 1012 hPa 0,0 l/m 0,0 km/h (0 Bft) 3 min
14.10.2013 16:40 22,3 C 13,5 C 14,3 C 78 % 42 % 1012 hPa 0,0 l/m 0,0 km/h (0 Bft) 3 min
14.10.2013 16:43 22,3 C 13,5 C 14,4 C 78 % 42 % 1012 hPa 0,0 l/m 0,0 km/h (0 Bft) 3 min
14.10.2013 16:46 22,4 C 13,6 C 14,5 C 78 % 57 % 1012 hPa 0,0 l/m 0,0 km/h (0 Bft) 3 min
14.10.2013 16:49 22,4 C 13,6 C 14,7 C 78 % 57 % 1012 hPa 0,0 l/m 0,0 km/h (0 Bft) 3 min
14.10.2013 16:52 22,4 C 13,6 C 14,7 C 78 % 67 % 1012 hPa 0,0 l/m 0,0 km/h (0 Bft) 3 min
14.10.2013 16:55 22,4 C 13,6 C 14,5 C 77 % 61 % 1012 hPa 0,0 l/m 0,0 km/h (0 Bft) 3 min
14.10.2013 16:58 22,4 C 13,6 C 14,5 C 77 % 56 % 1012 hPa 0,0 l/m 0,0 km/h (0 Bft) 3 min
14.10.2013 17:01 22,4 C 13,6 C 14,3 C 77 % 52 % 1012 hPa 0,0 l/m 1,3 km/h (1 Bft) 3 min
14.10.2013 17:04 22,4 C 13,6 C 14,0 C 76 % 50 % 1012 hPa 0,0 l/m 7,5 km/h (2 Bft) 3 min
14.10.2013 17:07 22,5 C 13,6 C 14,0 C 76 % 47 % 1012 hPa 0,0 l/m 3,0 km/h (1 Bft) 3 min
14.10.2013 17:10 22,5 C 13,6 C 14,0 C 76 % 41 % 1012 hPa 0,0 l/m 1,5 km/h (1 Bft) 3 min
14.10.2013 17:13 22,6 C 13,6 C 13,7 C 76 % 36 % 1012 hPa 0,0 l/m 4,8 km/h (1 Bft) 3 min
14.10.2013 17:16 22,6 C 13,5 C 13,5 C 76 % 32 % 1012 hPa 0,0 l/m 4,8 km/h (1 Bft) 3 min
14.10.2013 17:19 22,6 C 13,5 C 13,3 C 76 % 32 % 1012 hPa 0,0 l/m 1,8 km/h (1 Bft) 3 min
14.10.2013 17:22 22,6 C 13,4 C 12,7 C 76 % 32 % 1012 hPa 0,0 l/m 0,5 km/h (0 Bft) 3 min
14.10.2013 17:25 22,6 C 13,3 C 12,5 C 76 % 32 % 1012 hPa 0,0 l/m 0,0 km/h (0 Bft) 3 min
14.10.2013 17:28 22,5 C 13,3 C 12,2 C 77 % 17 % 1012 hPa 0,0 l/m 0,6 km/h (0 Bft) 3 min
14.10.2013 17:31 22,5 C 13,2 C 12,2 C 77 % 15 % 1012 hPa 0,0 l/m 2,4 km/h (1 Bft) 3 min
14.10.2013 17:34 22,5 C 13,1 C 12,2 C 77 % 15 % 1012 hPa 0,0 l/m 3,2 km/h (1 Bft) 3 min
14.10.2013 17:37 22,5 C 13,0 C 11,7 C 78 % 16 % 1012 hPa 0,0 l/m 3,8 km/h (1 Bft) 3 min
14.10.2013 17:40 22,6 C 13,0 C 11,8 C 78 % 13 % 1012 hPa 0,0 l/m 1,0 km/h (0 Bft) 3 min
14.10.2013 17:43 22,6 C 13,0 C 11,4 C 78 % 12 % 1012 hPa 0,0 l/m 2,5 km/h (1 Bft) 3 min
14.10.2013 17:46 22,6 C 13,0 C 11,4 C 78 % 12 % 1012 hPa 0,0 l/m 0,8 km/h (0 Bft) 3 min
14.10.2013 17:49 22,6 C 13,0 C 11,1 C 78 % 12 % 1012 hPa 0,0 l/m 0,4 km/h (0 Bft) 3 min
14.10.2013 17:52 22,5 C 12,9 C 11,0 C 78 % 10 % 1012 hPa 0,0 l/m 3,4 km/h (1 Bft) 3 min
14.10.2013 17:55 22,6 C 12,8 C 10,9 C 78 % 8 % 1012 hPa 0,0 l/m 2,2 km/h (1 Bft) 3 min
14.10.2013 17:58 22,6 C 12,7 C 10,6 C 78 % 7 % 1012 hPa 0,0 l/m 2,8 km/h (1 Bft) 3 min
14.10.2013 18:01 22,6 C 12,7 C 10,8 C 78 % 6 % 1012 hPa 0,0 l/m 2,5 km/h (1 Bft) 3 min
14.10.2013 18:04 22,6 C 12,6 C 10,4 C 79 % 5 % 1012 hPa 0,0 l/m 0,3 km/h (0 Bft) 3 min
14.10.2013 18:07 22,6 C 12,5 C 10,0 C 79 % 4 % 1012 hPa 0,0 l/m 0,3 km/h (0 Bft) 3 min
14.10.2013 18:10 22,6 C 12,5 C 9,7 C 79 % 3 % 1012 hPa 0,0 l/m 1,3 km/h (1 Bft) 0 min
14.10.2013 18:13 22,7 C 12,4 C 9,7 C 80 % 2 % 1012 hPa 0,0 l/m 0,2 km/h (0 Bft) 0 min
14.10.2013 18:16 22,6 C 12,4 C 9,9 C 80 % 2 % 1012 hPa 0,0 l/m 0,0 km/h (0 Bft) 0 min
14.10.2013 18:19 22,7 C 12,3 C 9,7 C 80 % 1 % 1012 hPa 0,0 l/m 0,0 km/h (0 Bft) 0 min
14.10.2013 18:22 22,7 C 12,3 C 9,5 C 80 % 1 % 1012 hPa 0,0 l/m 0,0 km/h (0 Bft) 0 min
14.10.2013 18:25 22,6 C 12,3 C 9,0 C 80 % 1 % 1012 hPa 0,0 l/m 0,0 km/h (0 Bft) 0 min
14.10.2013 18:28 22,6 C 12,1 C 8,9 C 81 % 1 % 1012 hPa 0,0 l/m 0,0 km/h (0 Bft) 0 min
14.10.2013 18:31 22,6 C 12,0 C 8,9 C 81 % 0 % 1012 hPa 0,0 l/m 0,0 km/h (0 Bft) 0 min
14.10.2013 18:34 22,6 C 12,0 C 8,8 C 81 % 0 % 1012 hPa 0,0 l/m 0,0 km/h (0 Bft) 0 min
14.10.2013 18:37 22,6 C 11,9 C 8,8 C 81 % 0 % 1012 hPa 0,0 l/m 0,0 km/h (0 Bft) 0 min
14.10.2013 18:40 22,6 C 11,9 C 8,7 C 81 % 0 % 1012 hPa 0,0 l/m 0,0 km/h (0 Bft) 0 min
14.10.2013 18:43 22,6 C 11,8 C 8,5 C 81 % 0 % 1012 hPa 0,0 l/m 0,0 km/h (0 Bft) 0 min
14.10.2013 18:46 22,6 C 11,7 C 8,6 C 81 % 0 % 1012 hPa 0,0 l/m 0,0 km/h (0 Bft) 0 min
14.10.2013 18:49 22,6 C 11,7 C 8,4 C 81 % 0 % 1012 hPa 0,0 l/m 0,0 km/h (0 Bft) 0 min
14.10.2013 18:52 22,6 C 11,7 C 8,3 C 82 % 0 % 1012 hPa 0,0 l/m 0,0 km/h (0 Bft) 0 min
14.10.2013 18:55 22,6 C 11,6 C 8,3 C 82 % 0 % 1012 hPa 0,0 l/m 0,0 km/h (0 Bft) 0 min
14.10.2013 18:58 22,6 C 11,6 C 8,3 C 82 % 0 % 1012 hPa 0,0 l/m 0,1 km/h (0 Bft) 0 min
14.10.2013 19:01 22,7 C 11,5 C 8,3 C 82 % 0 % 1012 hPa 0,0 l/m 0,0 km/h (0 Bft) 0 min
14.10.2013 19:04 22,6 C 11,5 C 8,0 C 82 % 0 % 1012 hPa 0,0 l/m 0,0 km/h (0 Bft) 0 min
14.10.2013 19:07 22,7 C 11,4 C 8,0 C 82 % 0 % 1012 hPa 0,0 l/m 0,0 km/h (0 Bft) 0 min
14.10.2013 19:10 22,7 C 11,4 C 8,0 C 83 % 0 % 1012 hPa 0,0 l/m 0,0 km/h (0 Bft) 0 min
14.10.2013 19:13 22,7 C 11,3 C 8,0 C 83 % 0 % 1012 hPa 0,0 l/m 0,1 km/h (0 Bft) 0 min
14.10.2013 19:16 22,7 C 11,3 C 8,0 C 83 % 0 % 1012 hPa 0,0 l/m 0,1 km/h (0 Bft) 0 min
14.10.2013 19:19 22,8 C 11,3 C 8,0 C 83 % 0 % 1012 hPa 0,0 l/m 0,0 km/h (0 Bft) 0 min
14.10.2013 19:22 22,8 C 11,2 C 7,9 C 83 % 0 % 1012 hPa 0,0 l/m 0,0 km/h (0 Bft) 0 min
14.10.2013 19:25 22,8 C 11,2 C 7,9 C 83 % 0 % 1012 hPa 0,0 l/m 0,7 km/h (0 Bft) 0 min
14.10.2013 19:28 22,8 C 11,2 C 7,9 C 84 % 0 % 1012 hPa 0,0 l/m 0,7 km/h (0 Bft) 0 min
14.10.2013 19:31 22,8 C 11,1 C 7,7 C 84 % 0 % 1012 hPa 0,0 l/m 0,3 km/h (0 Bft) 0 min
14.10.2013 19:34 22,8 C 11,1 C 7,9 C 84 % 0 % 1012 hPa 0,0 l/m 0,0 km/h (0 Bft) 0 min
14.10.2013 19:37 22,8 C 11,1 C 7,8 C 84 % 0 % 1012 hPa 0,0 l/m 0,0 km/h (0 Bft) 0 min
14.10.2013 19:40 22,8 C 11,0 C 8,0 C 85 % 0 % 1012 hPa 0,0 l/m 0,0 km/h (0 Bft) 0 min
14.10.2013 19:43 22,8 C 10,9 C 7,8 C 85 % 0 % 1012 hPa 0,0 l/m 0,0 km/h (0 Bft) 0 min
14.10.2013 19:46 22,8 C 10,9 C 7,5 C 85 % 0 % 1012 hPa 0,0 l/m 0,0 km/h (0 Bft) 0 min
14.10.2013 19:49 22,8 C 10,8 C 7,4 C 85 % 0 % 1012 hPa 0,0 l/m 0,0 km/h (0 Bft) 0 min
14.10.2013 19:52 22,8 C 10,8 C 7,4 C 85 % 0 % 1012 hPa 0,0 l/m 0,0 km/h (0 Bft) 0 min
14.10.2013 19:55 22,9 C 10,7 C 7,2 C 85 % 0 % 1012 hPa 0,0 l/m 0,0 km/h (0 Bft) 0 min
14.10.2013 19:58 22,9 C 10,6 C 7,3 C 85 % 0 % 1012 hPa 0,0 l/m 0,0 km/h (0 Bft) 0 min
14.10.2013 20:01 22,9 C 10,6 C 7,3 C 86 % 0 % 1012 hPa 0,0 l/m 0,0 km/h (0 Bft) 0 min
14.10.2013 20:04 22,9 C 10,6 C 7,1 C 86 % 0 % 1012 hPa 0,0 l/m 0,0 km/h (0 Bft) 0 min
14.10.2013 20:07 23,0 C 10,5 C 7,1 C 86 % 0 % 1012 hPa 0,0 l/m 0,0 km/h (0 Bft) 0 min
14.10.2013 20:10 23,0 C 10,5 C 7,0 C 86 % 0 % 1012 hPa 0,0 l/m 0,0 km/h (0 Bft) 0 min
14.10.2013 20:14 22,9 C 10,5 C 6,9 C 86 % 0 % 1012 hPa 0,0 l/m 0,0 km/h (0 Bft) 0 min
14.10.2013 20:16 22,9 C 10,5 C 6,7 C 86 % 0 % 1012 hPa 0,0 l/m 0,0 km/h (0 Bft) 0 min
14.10.2013 20:19 22,9 C 10,4 C 6,8 C 86 % 0 % 1012 hPa 0,0 l/m 0,0 km/h (0 Bft) 0 min
14.10.2013 20:22 22,9 C 10,4 C 6,7 C 86 % 0 % 1012 hPa 0,0 l/m 0,0 km/h (0 Bft) 0 min
14.10.2013 20:25 22,8 C 10,4 C 6,8 C 86 % 0 % 1012 hPa 0,0 l/m 0,0 km/h (0 Bft) 0 min
14.10.2013 20:28 22,8 C 10,3 C 7,1 C 86 % 0 % 1012 hPa 0,0 l/m 2,6 km/h (1 Bft) 0 min
14.10.2013 20:31 22,8 C 10,2 C 7,1 C 87 % 0 % 1012 hPa 0,0 l/m 2,0 km/h (1 Bft) 0 min
14.10.2013 20:34 22,8 C 10,1 C 7,2 C 87 % 0 % 1012 hPa 0,0 l/m 2,9 km/h (1 Bft) 0 min
14.10.2013 20:37 22,8 C 10,2 C 7,2 C 88 % 0 % 1012 hPa 0,0 l/m 2,9 km/h (1 Bft) 0 min
14.10.2013 20:40 22,8 C 10,2 C 7,5 C 89 % 0 % 1012 hPa 0,0 l/m 3,7 km/h (1 Bft) 0 min
14.10.2013 20:43 22,8 C 10,2 C 7,1 C 89 % 0 % 1012 hPa 0,0 l/m 5,2 km/h (1 Bft) 0 min
14.10.2013 20:46 22,8 C 10,1 C 7,2 C 89 % 0 % 1012 hPa 0,0 l/m 5,5 km/h (1 Bft) 0 min
14.10.2013 20:49 22,8 C 10,1 C 7,2 C 90 % 0 % 1012 hPa 0,0 l/m 4,6 km/h (1 Bft) 0 min
14.10.2013 20:52 22,8 C 10,0 C 7,2 C 90 % 0 % 1012 hPa 0,0 l/m 4,2 km/h (1 Bft) 0 min
14.10.2013 20:56 22,8 C 10,0 C 7,4 C 90 % 0 % 1012 hPa 0,0 l/m 4,9 km/h (1 Bft) 0 min
14.10.2013 20:58 22,8 C 10,0 C 7,5 C 91 % 0 % 1012 hPa 0,0 l/m 5,1 km/h (1 Bft) 0 min
14.10.2013 21:01 22,8 C 10,0 C 7,5 C 91 % 0 % 1012 hPa 0,0 l/m 3,5 km/h (1 Bft) 0 min
14.10.2013 21:04 22,8 C 10,0 C 7,7 C 91 % 0 % 1012 hPa 0,0 l/m 4,6 km/h (1 Bft) 0 min
14.10.2013 21:07 22,8 C 10,0 C 7,7 C 91 % 0 % 1012 hPa 0,0 l/m 4,6 km/h (1 Bft) 0 min
14.10.2013 21:10 22,8 C 10,0 C 7,8 C 92 % 0 % 1012 hPa 0,0 l/m 8,3 km/h (2 Bft) 0 min
14.10.2013 21:13 22,8 C 10,0 C 8,0 C 92 % 0 % 1012 hPa 0,0 l/m 6,6 km/h (2 Bft) 0 min
14.10.2013 21:16 22,8 C 10,0 C 8,0 C 92 % 0 % 1012 hPa 0,0 l/m 7,9 km/h (2 Bft) 0 min
14.10.2013 21:19 22,8 C 10,0 C 8,1 C 93 % 0 % 1012 hPa 0,0 l/m 8,7 km/h (2 Bft) 0 min
14.10.2013 21:22 22,8 C 10,0 C 8,1 C 93 % 0 % 1012 hPa 0,0 l/m 8,0 km/h (2 Bft) 0 min
14.10.2013 21:26 22,8 C 9,9 C 8,3 C 93 % 0 % 1012 hPa 0,0 l/m 12,0 km/h (2 Bft) 0 min
14.10.2013 21:28 22,7 C 10,0 C 8,3 C 94 % 0 % 1012 hPa 0,0 l/m 10,5 km/h (2 Bft) 0 min
14.10.2013 21:31 22,7 C 10,0 C 8,3 C 94 % 0 % 1012 hPa 0,0 l/m 10,5 km/h (2 Bft) 0 min
14.10.2013 21:35 22,7 C 10,0 C 8,3 C 94 % 0 % 1012 hPa 0,0 l/m 9,8 km/h (2 Bft) 0 min
14.10.2013 21:37 22,7 C 9,9 C 8,3 C 94 % 0 % 1012 hPa 0,0 l/m 9,8 km/h (2 Bft) 0 min
14.10.2013 21:40 22,7 C 9,8 C 8,2 C 94 % 0 % 1012 hPa 0,0 l/m 9,7 km/h (2 Bft) 0 min
14.10.2013 21:43 22,7 C 9,8 C 8,2 C 94 % 0 % 1012 hPa 0,0 l/m 8,5 km/h (2 Bft) 0 min
14.10.2013 21:46 22,7 C 9,7 C 8,2 C 95 % 0 % 1012 hPa 0,0 l/m 8,3 km/h (2 Bft) 0 min
14.10.2013 21:49 22,7 C 9,7 C 8,1 C 95 % 0 % 1012 hPa 0,0 l/m 9,7 km/h (2 Bft) 0 min
14.10.2013 21:52 22,7 C 9,6 C 8,2 C 95 % 0 % 1012 hPa 0,0 l/m 11,6 km/h (2 Bft) 0 min
14.10.2013 21:55 22,7 C 9,5 C 8,1 C 95 % 0 % 1012 hPa 0,0 l/m 12,4 km/h (3 Bft) 0 min
14.10.2013 21:58 22,7 C 9,4 C 8,0 C 95 % 0 % 1012 hPa 0,0 l/m 10,8 km/h (2 Bft) 0 min
14.10.2013 22:01 22,7 C 9,3 C 8,0 C 96 % 0 % 1012 hPa 0,0 l/m 12,1 km/h (2 Bft) 0 min
14.10.2013 22:05 22,7 C 9,2 C 8,0 C 96 % 0 % 1012 hPa 0,0 l/m 12,1 km/h (2 Bft) 0 min
14.10.2013 22:07 22,7 C 9,2 C 8,0 C 96 % 0 % 1012 hPa 0,0 l/m 11,6 km/h (2 Bft) 0 min
14.10.2013 22:10 22,7 C 9,2 C 8,0 C 96 % 0 % 1012 hPa 0,0 l/m 11,6 km/h (2 Bft) 0 min
14.10.2013 22:14 22,7 C 9,1 C 7,9 C 97 % 0 % 1012 hPa 0,0 l/m 10,1 km/h (2 Bft) 0 min
14.10.2013 22:16 22,7 C 9,1 C 8,0 C 97 % 0 % 1012 hPa 0,0 l/m 13,9 km/h (3 Bft) 0 min
14.10.2013 22:19 22,7 C 9,1 C 8,0 C 97 % 0 % 1012 hPa 0,0 l/m 13,9 km/h (3 Bft) 0 min
14.10.2013 22:22 22,6 C 9,1 C 8,3 C 97 % 0 % 1012 hPa 0,0 l/m 14,0 km/h (3 Bft) 0 min
14.10.2013 22:26 22,6 C 9,1 C 8,4 C 97 % 0 % 1012 hPa 0,0 l/m 16,5 km/h (3 Bft) 0 min
14.10.2013 22:28 22,6 C 9,0 C 8,5 C 97 % 0 % 1012 hPa 0,0 l/m 14,3 km/h (3 Bft) 0 min
14.10.2013 22:31 22,6 C 9,1 C 8,6 C 98 % 0 % 1012 hPa 0,0 l/m 13,2 km/h (3 Bft) 0 min
14.10.2013 22:34 22,6 C 9,1 C 8,7 C 98 % 0 % 1012 hPa 0,0 l/m 12,7 km/h (3 Bft) 0 min
14.10.2013 22:37 22,6 C 9,1 C 8,7 C 98 % 0 % 1012 hPa 0,0 l/m 13,9 km/h (3 Bft) 0 min
14.10.2013 22:40 22,6 C 9,1 C 8,7 C 98 % 0 % 1012 hPa 0,0 l/m 12,1 km/h (2 Bft) 0 min
14.10.2013 22:43 22,6 C 9,1 C 8,7 C 98 % 0 % 1012 hPa 0,0 l/m 9,9 km/h (2 Bft) 0 min
14.10.2013 22:46 22,6 C 9,1 C 8,7 C 98 % 0 % 1012 hPa 0,0 l/m 11,3 km/h (2 Bft) 0 min
14.10.2013 22:49 22,5 C 9,1 C 8,7 C 98 % 0 % 1012 hPa 0,0 l/m 10,5 km/h (2 Bft) 0 min
14.10.2013 22:52 22,5 C 9,1 C 8,8 C 98 % 0 % 1012 hPa 0,0 l/m 12,5 km/h (3 Bft) 0 min
14.10.2013 22:56 22,5 C 9,1 C 8,8 C 98 % 0 % 1012 hPa 0,0 l/m 12,0 km/h (2 Bft) 0 min
14.10.2013 22:58 22,5 C 9,1 C 8,8 C 99 % 0 % 1012 hPa 0,0 l/m 15,6 km/h (3 Bft) 0 min
14.10.2013 23:01 22,5 C 9,1 C 8,8 C 99 % 0 % 1012 hPa 0,0 l/m 16,4 km/h (3 Bft) 0 min
14.10.2013 23:04 22,5 C 9,1 C 8,9 C 99 % 0 % 1012 hPa 0,0 l/m 16,9 km/h (3 Bft) 0 min
14.10.2013 23:07 22,5 C 9,1 C 8,9 C 99 % 0 % 1012 hPa 0,0 l/m 12,8 km/h (3 Bft) 0 min
14.10.2013 23:10 22,5 C 9,1 C 8,9 C 99 % 0 % 1012 hPa 0,0 l/m 14,3 km/h (3 Bft) 0 min
14.10.2013 23:13 22,5 C 9,1 C 8,9 C 99 % 0 % 1012 hPa 0,0 l/m 12,7 km/h (3 Bft) 0 min
14.10.2013 23:16 22,5 C 9,1 C 9,0 C 99 % 0 % 1012 hPa 0,0 l/m 9,9 km/h (2 Bft) 0 min
14.10.2013 23:19 22,5 C 9,1 C 9,0 C 99 % 0 % 1012 hPa 0,0 l/m 8,7 km/h (2 Bft) 0 min
14.10.2013 23:22 22,4 C 9,1 C 9,0 C 99 % 0 % 1012 hPa 0,0 l/m 5,7 km/h (1 Bft) 0 min
14.10.2013 23:25 22,4 C 9,2 C 9,0 C 99 % 0 % 1012 hPa 0,0 l/m 9,6 km/h (2 Bft) 0 min
14.10.2013 23:28 22,4 C 9,1 C 9,1 C 99 % 0 % 1012 hPa 0,0 l/m 6,5 km/h (2 Bft) 0 min
14.10.2013 23:31 22,4 C 9,1 C 9,1 C 99 % 0 % 1012 hPa 0,0 l/m 10,1 km/h (2 Bft) 0 min
14.10.2013 23:34 22,4 C 9,2 C 9,1 C 99 % 0 % 1012 hPa 0,0 l/m 9,6 km/h (2 Bft) 0 min
14.10.2013 23:37 22,4 C 9,2 C 9,1 C 99 % 0 % 1012 hPa 0,0 l/m 11,5 km/h (2 Bft) 0 min
14.10.2013 23:40 22,4 C 9,2 C 9,1 C 99 % 0 % 1012 hPa 0,0 l/m 9,3 km/h (2 Bft) 0 min
14.10.2013 23:43 22,4 C 9,2 C 9,1 C 99 % 0 % 1012 hPa 0,0 l/m 11,1 km/h (2 Bft) 0 min
14.10.2013 23:46 22,4 C 9,2 C 9,1 C 99 % 0 % 1012 hPa 0,0 l/m 15,0 km/h (3 Bft) 0 min
14.10.2013 23:49 22,4 C 9,2 C 9,1 C 99 % 0 % 1012 hPa 0,0 l/m 11,1 km/h (2 Bft) 0 min
14.10.2013 23:52 22,4 C 9,2 C 9,1 C 99 % 0 % 1012 hPa 0,0 l/m 11,1 km/h (2 Bft) 0 min
14.10.2013 23:55 22,4 C 9,2 C 9,1 C 99 % 0 % 1012 hPa 0,0 l/m 11,1 km/h (2 Bft) 0 min
14.10.2013 23:58 22,4 C 9,2 C 9,1 C 99 % 0 % 1011 hPa 0,0 l/m 12,8 km/h (3 Bft) 0 min
_ Min-Zeit 07:46 05:58 06:28 13:40 - 23:58 - 00:01 -
Minimum _ 18,6 C 3,8 C 1,8 C 76 % - 1011 hPa - 0,0 km/h (0 Bft) -
_ Max-Zeit 20:07 15:49 14:10 22:58 13:40 00:01 00:01 12:13 11:25
Maximum _ 23,0 C 13,9 C 16,5 C 99 % 70 % 1015 hPa 0,0 l/m 20,7 km/h
O-SO (4 Bft)
3 min
Durchschnitt _ 22,4 C 8,7 C 7,9 C 89 % #4:30 h 1013 hPa #0,0 l/m 4,3 km/h (1 Bft) #4:30 h